TimeCEST,TemperatureF,Dew PointF,Humidity,Sea Level PressureIn,VisibilityMPH,Wind Direction,Wind SpeedMPH,Gust SpeedMPH,PrecipitationIn,Events,Conditions,WindDirDegrees,DateUTC
12:00 AM,68.0,62.6,83,29.80,6.2,ESE,3.5,-,N/A,,Unknown,110,2013-10-01 22:00:00
12:30 AM,68.0,62.6,83,29.83,6.2,SE,4.6,-,N/A,,Unknown,130,2013-10-01 22:30:00
1:00 AM,66.2,62.6,88,29.83,6.2,ESE,3.5,-,N/A,,Scattered Clouds,110,2013-10-01 23:00:00
1:30 AM,64.4,60.8,88,29.83,6.2,Variable,2.3,-,N/A,,Unknown,0,2013-10-01 23:30:00
2:00 AM,64.4,60.8,88,29.83,6.2,East,3.5,-,N/A,,Mostly Cloudy,100,2013-10-02 00:00:00
2:30 AM,64.4,59.0,83,29.83,6.2,SE,4.6,-,N/A,,Unknown,140,2013-10-02 00:30:00
3:00 AM,64.4,59.0,83,29.83,6.2,ESE,4.6,-,N/A,,Unknown,120,2013-10-02 01:00:00
3:30 AM,62.6,59.0,88,29.83,6.2,SE,3.5,-,N/A,,Mostly Cloudy,130,2013-10-02 01:30:00
4:00 AM,62.6,59.0,88,29.83,6.2,SE,4.6,-,N/A,,Overcast,130,2013-10-02 02:00:00
4:30 AM,62.6,59.0,88,29.80,6.2,SE,5.8,-,N/A,,Unknown,130,2013-10-02 02:30:00
5:00 AM,62.6,59.0,88,29.83,6.2,ESE,3.5,-,N/A,,Unknown,120,2013-10-02 03:00:00
5:30 AM,62.6,59.0,88,29.83,6.2,ESE,3.5,-,N/A,,Overcast,120,2013-10-02 03:30:00
6:00 AM,62.6,59.0,88,29.83,6.2,SE,4.6,-,N/A,,Scattered Clouds,130,2013-10-02 04:00:00
6:30 AM,64.4,59.0,83,29.83,6.2,SE,5.8,-,N/A,,Scattered Clouds,140,2013-10-02 04:30:00
7:00 AM,62.6,59.0,88,29.80,6.2,Variable,2.3,-,N/A,,Scattered Clouds,0,2013-10-02 05:00:00
7:30 AM,62.6,59.0,88,29.83,-9999.0,Variable,2.3,-,N/A,,Clear,0,2013-10-02 05:30:00
8:00 AM,62.6,59.0,88,29.83,6.2,Variable,1.2,-,N/A,,Partly Cloudy,0,2013-10-02 06:00:00
8:30 AM,62.6,59.0,88,29.83,6.2,SSE,4.6,-,N/A,,Mostly Cloudy,160,2013-10-02 06:30:00
9:00 AM,64.4,59.0,83,29.83,6.2,ESE,5.8,-,N/A,Rain,Light Rain,110,2013-10-02 07:00:00
9:30 AM,64.4,60.8,88,29.83,6.2,SE,5.8,-,N/A,,Mostly Cloudy,130,2013-10-02 07:30:00
10:00 AM,69.8,62.6,78,29.83,6.2,SE,5.8,-,N/A,,Mostly Cloudy,140,2013-10-02 08:00:00
10:30 AM,69.8,62.6,78,29.83,6.2,SE,4.6,-,N/A,,Mostly Cloudy,140,2013-10-02 08:30:00
11:00 AM,69.8,62.6,78,29.83,6.2,ESE,5.8,-,N/A,,Mostly Cloudy,120,2013-10-02 09:00:00
11:30 AM,69.8,62.6,78,29.83,6.2,South,4.6,-,N/A,,Mostly Cloudy,180,2013-10-02 09:30:00
12:00 PM,73.4,62.6,69,29.83,6.2,Variable,3.5,-,N/A,,Mostly Cloudy,0,2013-10-02 10:00:00
12:30 PM,77.0,64.4,65,29.83,6.2,Variable,2.3,-,N/A,,Mostly Cloudy,0,2013-10-02 10:30:00
1:00 PM,78.8,64.4,61,29.83,6.2,Variable,2.3,-,N/A,,Mostly Cloudy,0,2013-10-02 11:00:00
1:30 PM,82.4,64.4,54,29.83,6.2,Variable,2.3,-,N/A,,Mostly Cloudy,0,2013-10-02 11:30:00
2:00 PM,82.4,64.4,54,29.83,6.2,Variable,2.3,-,N/A,,Mostly Cloudy,0,2013-10-02 12:00:00
2:30 PM,84.2,62.6,48,29.83,6.2,ESE,5.8,-,N/A,,Mostly Cloudy,110,2013-10-02 12:30:00
3:00 PM,84.2,59.0,42,29.80,6.2,Variable,2.3,-,N/A,,Mostly Cloudy,0,2013-10-02 13:00:00
3:30 PM,84.2,62.6,48,29.80,6.2,Variable,3.5,-,N/A,,Scattered Clouds,0,2013-10-02 13:30:00
4:14 PM,82.4,62.6,51,29.80,6.2,Variable,1.2,-,N/A,,Scattered Clouds,0,2013-10-02 14:14:00
4:30 PM,84.2,62.6,48,29.80,6.2,Variable,3.5,-,N/A,,Scattered Clouds,0,2013-10-02 14:30:00
5:00 PM,82.4,64.4,54,29.80,-9999.0,ENE,3.5,-,N/A,,Clear,70,2013-10-02 15:00:00
5:30 PM,82.4,62.6,51,29.80,-9999.0,ENE,4.6,-,N/A,,Clear,70,2013-10-02 15:30:00
6:00 PM,82.4,64.4,54,29.77,-9999.0,ENE,5.8,-,N/A,,Clear,70,2013-10-02 16:00:00
6:30 PM,80.6,64.4,58,29.80,-9999.0,Variable,3.5,-,N/A,,Clear,0,2013-10-02 16:30:00
7:00 PM,80.6,64.4,58,29.80,-9999.0,NE,5.8,-,N/A,,Clear,40,2013-10-02 17:00:00
7:30 PM,77.0,64.4,65,29.80,-9999.0,Variable,2.3,-,N/A,,Clear,0,2013-10-02 17:30:00
8:00 PM,75.2,64.4,69,29.80,-9999.0,Variable,2.3,-,N/A,,Clear,0,2013-10-02 18:00:00
8:30 PM,75.2,64.4,69,29.80,-9999.0,East,2.3,-,N/A,,Clear,90,2013-10-02 18:30:00
9:00 PM,73.4,64.4,73,29.80,-9999.0,Calm,Calm,-,N/A,,Clear,0,2013-10-02 19:00:00
9:30 PM,73.4,64.4,73,29.80,6.2,Variable,1.2,-,N/A,,Mostly Cloudy,0,2013-10-02 19:30:00
10:00 PM,73.4,66.2,78,29.80,6.2,ESE,5.8,-,N/A,,Unknown,120,2013-10-02 20:00:00
10:30 PM,71.6,64.4,78,29.80,6.2,ESE,3.5,-,N/A,,Unknown,110,2013-10-02 20:30:00
11:00 PM,71.6,64.4,78,29.80,6.2,East,4.6,-,N/A,,Unknown,90,2013-10-02 21:00:00
11:30 PM,69.8,64.4,83,29.80,6.2,ESE,6.9,-,N/A,,Unknown,120,2013-10-02 21:30:00